sat.trackr.live / text

‹ back to catalog

STARLINK-30913

NORAD 58388 · 2023-178Q

PAYLOAD ACTIVE UNKNOWN

§ Identity

Operator
Country
US
Launch date
2023-11-20
Launch site
AFWTR
Launch vehicle
Mass (kg)
RCS (m²)

Purposes: comms

External: N2YO · Heavens-Above · Gunter

§ Orbital elements

Epoch: 2026-09-20T11:31:23.816064Z

Period
93.85 min
Inclination
53.1585°
Eccentricity
0.0001242
Mean motion
15.34383016 rev/d
Perigee alt
461.9 km
Apogee alt
463.6 km
Semi-major
6,840.9 km
B*
-2.7671e-6
RAAN
172.1165°
Arg perigee
86.4585°
Mean anomaly
273.6559°
Rev number
15,977

§ Raw data

STARLINK-309131 58388U 23178Q   26263.48013676 -.00000470  00000+0 -27671-5 0  99972 58388  53.1585 172.1165 0001242  86.4585 273.6559 15.34383016159779

JSON: /api/v1/satellites/58388 · /tle

For live sub-satellite position, see the globe view (requires WebGL).

§ Visibility from observer

Set your observer location to see the next 7 days of passes ≥ 10°. The values pass through the URL so the page stays shareable.

No JS? Fill the form by hand. The geolocation button needs JavaScript.